This demonstration page uses our WeatherBlox Daily Observations layout. Learn more.

Left ArrowRight Arrow

39.92423, -83.80882

Hourly Observations for March 5, 2021

Temp ( °F °C ) Dew Point ( °F °C ) Humidity (%) Winds ( mph kmh ) Pressure ( in mb ) Visibility ( mi km ) Precip ( " mm )
12:56 am 00:56 Clear 22 -5.6 20 -6.7 92 92 NNE 7 11 30.30 1026 10 16 N/A
1:56 am 01:56 Clear 23 -5 20 -6.7 88 88 NNE 6 9 30.30 1026 10 16 N/A
2:56 am 02:56 Clear 22 -5.6 20 -6.7 92 92 N 3 6 30.30 1026 10 16 N/A
3:56 am 03:56 Clear 21 -6.1 20 -6.7 96 96 N N/A 30.30 1026 10 16 N/A
4:56 am 04:56 Clear 18 -7.8 18 -7.8 100 100 W 5 7 30.32 1027 8 13 N/A
5:56 am 05:56 Clear 19 -7.2 19 -7.2 100 100 W 5 7 30.33 1027 10 16 N/A
6:56 am 06:56 Clear 20 -6.7 19 -7.2 96 96 WNW 6 9 30.33 1027 10 16 N/A
7:56 am 07:56 Sunny 23 -5 22 -5.6 96 96 W 6 9 30.33 1027 10 16 N/A
8:56 am 08:56 Sunny 27 -2.8 23 -5 85 85 NW 6 9 30.35 1028 10 16 N/A
9:56 am 09:56 Sunny 30 -1.1 23 -5 75 75 NNW 7 11 30.34 1027 10 16 N/A
10:56 am 10:56 Sunny 34 1.1 17 -8.3 50 50 NW 9 15 30.34 1028 10 16 N/A
11:56 am 11:56 Sunny 36 2.2 17 -8.3 46 46 NW 9 15 30.34 1027 10 16 N/A
12:56 pm 12:56 Sunny 39 3.9 19 -7.2 45 45 NNW 12 19 30.32 1027 10 16 N/A
1:56 pm 13:56 Sunny 40 4.4 18 -7.8 41 41 NNW 15 24 30.29 1026 10 16 N/A
2:56 pm 14:56 Sunny 41 5 20 -6.7 43 43 NNW 14 22 30.27 1025 10 16 N/A
3:56 pm 15:56 Sunny 41 5 20 -6.7 43 43 NW 15 24 30.27 1025 10 16 N/A
4:56 pm 16:56 Sunny 41 5 21 -6.1 45 45 WNW 16 26 30.27 1025 10 16 N/A
5:56 pm 17:56 Sunny 39 3.9 22 -5.6 50 50 NW 7 11 30.27 1025 10 16 N/A
6:56 pm 18:56 Clear 34 1.1 22 -5.6 61 61 W 7 11 30.27 1025 10 16 N/A
7:56 pm 19:56 Clear 32 undefined 22 -5.6 66 66 W 5 7 30.26 1025 10 16 N/A
8:56 pm 20:56 Clear 33 0.6 23 -5 66 66 W 5 7 30.26 1025 10 16 N/A
9:56 pm 21:56 Clear 29 -1.7 24 -4.4 82 82 W 7 11 30.26 1025 10 16 N/A
10:56 pm 22:56 Clear 31 -0.6 25 -3.9 79 79 NW 7 11 30.27 1025 10 16 N/A
11:56 pm 23:56 Clear 30 -1.1 25 -3.9 82 82 NW 8 13 30.27 1025 10 16 N/A

Powered by AerisWeather